sat.trackr.live / text

‹ back to catalog

ELEKTRO-L 2

NORAD 41105 · 2015-074A

PAYLOAD ACTIVE UNKNOWN

§ Identity

Operator
Country
CIS
Launch date
2015-12-11
Launch site
TYMSC
Launch vehicle
Mass (kg)
RCS (m²)
0.00

Purposes: comms, earth_obs

External: N2YO · Heavens-Above · Gunter

§ Orbital elements

Epoch: 2026-05-25T01:57:47.736000Z

Period
1,436.10 min
Inclination
6.6386°
Eccentricity
0.0001449
Mean motion
1.00271753 rev/d
Perigee alt
35,780.5 km
Apogee alt
35,792.7 km
Semi-major
42,164.7 km
B*
0.0000e+0
RAAN
70.8029°
Arg perigee
264.6302°
Mean anomaly
282.1844°
Rev number
3,827

§ Raw data

ELEKTRO-L 21 41105U 15074A   26145.08180250 -.00000119  00000+0  00000+0 0  99902 41105   6.6386  70.8029 0001449 264.6302 282.1844  1.00271753 38274

JSON: /api/v1/satellites/41105 · /tle

For live sub-satellite position, see the globe view (requires WebGL).

§ Visibility from observer

Set your observer location to see the next 7 days of passes ≥ 10°. The values pass through the URL so the page stays shareable.

No JS? Fill the form by hand. The geolocation button needs JavaScript.

§ Radio — SatNOGS DB

ModeDescriptionDownlinkUplink
FM 7502 LHCP 7.502 GHz
FSK GGAK-E 2 (665400 bd) 1.693 GHz
FM SARSAT - L-Band 1.545 GHz

3 transmitters · refreshed weekly from db.satnogs.org